Total_Precipitation_Accumulation
1.00 1.02 1.03 0.98 0.96 0.93 0.89 0.84 0.86 0.93 0.93 0.95 1.12 1.18 1.25 1.33 1.53 1.80 1.97 1.98 1.91 1.91 1.88 1.95 2.12 2.21 2.42 2.38 2.29 2.18 2.05 1.89 1.76 1.58 1.37 1.21 1.26 1.32 1.43 1.51 1.51 1.41 1.24
1.10 1.12 1.04 0.96 0.90 0.90 0.85 0.74 0.73 0.70 0.69 0.80 0.93 0.98 1.03 1.08 1.27 1.55 1.75 1.80 1.78 1.70 1.67 1.80 2.01 2.17 2.37 2.47 2.41 2.25 2.16 2.03 1.91 1.85 1.67 1.46 1.34 1.38 1.52 1.61 1.57 1.50 1.42
1.13 1.05 0.97 0.89 0.80 0.76 0.66 0.59 0.64 0.65 0.71 0.82 0.91 0.95 0.99 1.05 1.09 1.19 1.35 1.47 1.47 1.42 1.45 1.51 1.55 1.75 2.03 2.20 2.22 2.23 2.27 2.24 2.20 2.05 1.85 1.73 1.58 1.46 1.57 1.62 1.60 1.63 1.50
1.25 1.16 1.05 0.94 0.84 0.80 0.70 0.61 0.59 0.61 0.68 0.77 0.83 0.90 0.96 1.01 1.02 1.03 1.06 1.13 1.14 1.20 1.26 1.29 1.33 1.39 1.62 1.79 1.88 2.06 2.29 2.31 2.33 2.25 2.02 1.86 1.75 1.61 1.67 1.79 1.85 1.82 1.66
1.25 1.24 1.11 0.94 0.83 0.77 0.73 0.65 0.62 0.61 0.61 0.69 0.75 0.76 0.80 0.89 0.98 1.01 0.89 0.85 0.95 1.06 1.07 1.03 1.05 1.13 1.27 1.39 1.44 1.80 2.15 2.33 2.32 2.26 2.10 2.01 1.78 1.66 1.52 1.55 1.75 1.99 1.97
1.13 1.11 0.92 0.76 0.62 0.58 0.60 0.61 0.60 0.57 0.59 0.63 0.60 0.63 0.72 0.76 0.91 0.91 0.75 0.75 0.80 0.90 0.98 0.95 0.83 0.82 0.87 0.96 1.05 1.22 1.50 1.74 2.03 2.22 2.12 1.92 1.70 1.61 1.59 1.61 1.66 1.80 1.97
0.78 0.76 0.67 0.56 0.53 0.57 0.60 0.55 0.57 0.58 0.57 0.57 0.54 0.54 0.58 0.71 0.76 0.62 0.62 0.66 0.73 0.79 0.86 0.90 0.81 0.70 0.78 0.83 0.93 1.01 1.02 1.09 1.40 1.76 1.88 1.80 1.86 1.75 1.72 1.66 1.64 1.73 1.80
0.51 0.53 0.48 0.46 0.48 0.51 0.52 0.52 0.59 0.65 0.63 0.62 0.63 0.60 0.58 0.64 0.64 0.52 0.55 0.58 0.64 0.69 0.78 0.88 0.92 0.84 0.84 0.95 0.95 0.98 0.93 0.89 1.11 1.13 1.29 1.59 1.75 1.83 1.80 1.90 2.06 2.02 1.89
0.21 0.22 0.24 0.24 0.26 0.29 0.30 0.37 0.48 0.55 0.59 0.63 0.68 0.67 0.60 0.57 0.62 0.53 0.53 0.57 0.62 0.66 0.68 0.76 0.84 0.82 0.96 1.07 1.05 1.18 1.15 1.02 1.16 1.23 1.29 1.34 1.45 1.59 1.71 1.78 1.86 1.92 1.90
0.11 0.12 0.14 0.15 0.15 0.16 0.20 0.25 0.30 0.32 0.38 0.49 0.51 0.53 0.57 0.55 0.71 0.60 0.59 0.60 0.66 0.75 0.78 0.75 0.90 0.91 1.01 0.99 0.97 1.20 1.21 1.08 1.00 1.06 1.08 1.08 1.02 1.13 1.35 1.50 1.71 1.81 1.78
0.16 0.18 0.18 0.17 0.18 0.19 0.20 0.23 0.26 0.27 0.31 0.34 0.38 0.42 0.50 0.58 0.72 0.71 0.74 0.72 0.76 0.88 0.85 0.78 0.73 0.86 0.75 0.83 0.87 0.90 1.12 1.12 1.01 1.07 1.10 1.04 0.99 1.00 1.06 1.19 1.45 1.67 1.73
0.16 0.17 0.19 0.20 0.20 0.20 0.21 0.23 0.26 0.27 0.27 0.29 0.29 0.34 0.40 0.46 0.55 0.62 0.64 0.68 0.77 0.85 0.89 0.77 0.74 0.82 0.67 0.65 0.67 0.78 0.97 1.08 1.04 1.09 1.09 1.06 0.98 0.92 0.95 1.03 1.14 1.24 1.31
0.16 0.17 0.19 0.21 0.21 0.19 0.21 0.24 0.25 0.27 0.29 0.31 0.33 0.37 0.43 0.47 0.51 0.50 0.49 0.53 0.60 0.67 0.70 0.74 0.74 0.71 0.65 0.60 0.60 0.69 0.77 0.87 1.03 1.07 1.00 0.97 0.91 0.87 0.90 0.94 1.02 1.09 1.15
0.17 0.19 0.20 0.20 0.20 0.19 0.20 0.22 0.24 0.27 0.30 0.33 0.38 0.41 0.45 0.48 0.50 0.49 0.53 0.56 0.55 0.56 0.56 0.56 0.58 0.62 0.65 0.62 0.61 0.64 0.71 0.82 0.90 0.90 0.85 0.83 0.88 0.91 0.97 1.01 1.06 1.10 1.16
0.17 0.18 0.17 0.17 0.18 0.19 0.20 0.20 0.21 0.23 0.29 0.38 0.43 0.46 0.45 0.43 0.41 0.43 0.53 0.62 0.69 0.74 0.80 0.71 0.70 0.70 0.68 0.62 0.59 0.60 0.65 0.72 0.74 0.71 0.71 0.69 0.70 0.78 0.85 0.91 1.01 1.04 1.06
0.20 0.17 0.16 0.16 0.17 0.17 0.18 0.19 0.21 0.22 0.28 0.31 0.33 0.34 0.34 0.35 0.36 0.37 0.43 0.54 0.64 0.78 0.94 0.92 0.94 0.95 0.89 0.79 0.69 0.61 0.58 0.60 0.64 0.68 0.70 0.69 0.66 0.69 0.78 0.83 0.91 0.96 0.96
0.19 0.19 0.17 0.16 0.17 0.18 0.19 0.20 0.22 0.20 0.18 0.20 0.23 0.25 0.32 0.41 0.46 0.49 0.51 0.56 0.60 0.76 0.94 0.96 0.96 0.94 0.87 0.81 0.77 0.68 0.61 0.58 0.60 0.63 0.63 0.65 0.67 0.69 0.76 0.81 0.81 0.86 0.89
0.16 0.17 0.18 0.20 0.20 0.22 0.25 0.28 0.31 0.34 0.32 0.24 0.22 0.23 0.26 0.35 0.41 0.45 0.54 0.67 0.67 0.75 0.85 0.87 0.86 0.74 0.66 0.62 0.59 0.57 0.53 0.51 0.53 0.54 0.54 0.58 0.63 0.66 0.71 0.79 0.83 0.82 0.84
0.13 0.16 0.19 0.25 0.29 0.27 0.29 0.35 0.37 0.33 0.29 0.29 0.28 0.26 0.26 0.30 0.33 0.36 0.47 0.64 0.65 0.61 0.57 0.55 0.54 0.53 0.50 0.52 0.52 0.50 0.50 0.48 0.47 0.48 0.48 0.52 0.57 0.61 0.67 0.74 0.82 0.86 0.85
0.11 0.16 0.19 0.24 0.27 0.28 0.29 0.31 0.32 0.33 0.32 0.34 0.35 0.36 0.36 0.36 0.38 0.40 0.42 0.48 0.47 0.43 0.41 0.40 0.40 0.42 0.45 0.48 0.52 0.54 0.54 0.53 0.52 0.54 0.56 0.59 0.61 0.65 0.71 0.78 0.85 0.90 0.89
0.13 0.16 0.19 0.21 0.23 0.24 0.27 0.30 0.32 0.34 0.35 0.36 0.36 0.39 0.45 0.47 0.46 0.47 0.51 0.51 0.49 0.47 0.46 0.46 0.44 0.43 0.47 0.51 0.55 0.59 0.60 0.61 0.62 0.62 0.64 0.69 0.72 0.74 0.77 0.85 0.93 0.94 0.95
0.16 0.18 0.20 0.23 0.25 0.25 0.28 0.33 0.37 0.36 0.35 0.36 0.37 0.41 0.48 0.50 0.49 0.47 0.48 0.51 0.53 0.54 0.56 0.58 0.57 0.53 0.52 0.57 0.63 0.67 0.69 0.69 0.69 0.68 0.69 0.72 0.77 0.75 0.78 0.86 0.96 1.00 1.02
0.21 0.24 0.26 0.27 0.28 0.28 0.30 0.34 0.38 0.36 0.35 0.37 0.39 0.40 0.44 0.49 0.49 0.48 0.48 0.49 0.51 0.53 0.56 0.61 0.64 0.62 0.57 0.59 0.66 0.74 0.78 0.76 0.74 0.76 0.82 0.84 0.83 0.82 0.81 0.85 0.89 0.96 1.00
0.24 0.29 0.32 0.35 0.35 0.34 0.35 0.38 0.40 0.37 0.38 0.41 0.41 0.41 0.43 0.47 0.46 0.45 0.47 0.49 0.53 0.56 0.58 0.62 0.64 0.63 0.60 0.62 0.66 0.72 0.78 0.78 0.75 0.76 0.81 0.89 0.92 0.91 0.91 0.94 0.98 1.01 1.07
0.27 0.29 0.32 0.35 0.35 0.35 0.37 0.39 0.42 0.40 0.41 0.43 0.44 0.43 0.45 0.48 0.49 0.49 0.51 0.51 0.54 0.59 0.59 0.62 0.66 0.66 0.66 0.65 0.66 0.71 0.84 0.88 0.84 0.82 0.82 0.87 0.91 0.94 0.99 1.07 1.15 1.18 1.21
0.25 0.27 0.31 0.35 0.38 0.38 0.40 0.41 0.43 0.44 0.45 0.46 0.47 0.50 0.52 0.53 0.54 0.53 0.54 0.55 0.55 0.57 0.58 0.61 0.64 0.66 0.68 0.72 0.74 0.80 0.86 0.81 0.80 0.85 0.86 0.91 0.96 0.97 0.98 1.04 1.07 1.11 1.15